Location: Limerick
(52.6800°N, 8.6400°W)
Time: 13:27:28
(UTC+00:00)

Sapphire - Visible Passes

Search period start: 18 December 2014 00:00
Search period end: 28 December 2014 00:00
Orbit: 785 x 798 km, 67.1° (Epoch: 17 December)

Date Brightness Start Highest point End Pass type
(mag) Time Alt. Az. Time Alt. Az. Time Alt. Az.
18 Dec ? 17:44:50 10° W 17:49:26 27° NNW 17:53:53 11° NNE visible
18 Dec ? 19:31:01 10° NW 19:34:37 18° N 19:34:37 18° N visible
19 Dec ? 17:13:55 10° W 17:18:43 31° NNW 17:23:32 10° NNE visible
19 Dec ? 19:00:09 10° NW 19:03:51 18° N 19:04:56 17° N visible
19 Dec ? 20:44:55 10° NNW 20:45:41 13° NNW 20:45:41 13° NNW visible
20 Dec ? 18:29:14 10° NW 18:33:02 19° N 18:35:16 15° NNE visible
20 Dec ? 20:14:21 10° NNW 20:16:00 16° NNW 20:16:00 16° NNW visible
21 Dec ? 17:58:17 10° WNW 18:02:14 20° NNW 18:05:35 12° NNE visible
21 Dec ? 19:43:43 10° NNW 19:46:19 18° N 19:46:19 18° N visible
22 Dec ? 17:27:19 10° WNW 17:31:26 21° NNW 17:35:34 10° NNE visible
22 Dec ? 19:13:03 10° NW 19:16:39 19° N 19:16:39 19° N visible
22 Dec ? 20:56:54 10° NNW 20:57:24 12° NNW 20:57:24 12° NNW visible
23 Dec ? 16:56:21 10° WNW 17:00:40 23° NNW 17:05:00 10° NNE visible
23 Dec ? 18:42:19 10° NW 18:46:01 18° N 18:47:00 17° NNE visible
23 Dec ? 20:26:24 10° NNW 20:27:44 16° NNW 20:27:44 16° NNW visible
24 Dec ? 18:11:32 10° NW 18:15:11 18° N 18:17:21 15° NNE visible
24 Dec ? 19:55:53 10° NNW 19:58:05 20° NNW 19:58:05 20° NNW visible
25 Dec ? 17:40:41 10° NW 17:44:22 18° N 17:47:43 11° NE visible
25 Dec ? 19:25:21 10° NNW 19:28:28 22° N 19:28:28 22° N visible
25 Dec ? 21:08:45 10° NW 21:09:12 12° NW 21:09:12 12° NW visible
26 Dec ? 17:09:46 10° NW 17:13:32 19° N 17:17:19 10° NE visible
26 Dec ? 18:54:47 10° NNW 18:58:51 22° NNE 18:58:51 22° NNE visible
26 Dec ? 20:38:16 10° NW 20:39:36 17° NNW 20:39:36 17° NNW visible
27 Dec ? 18:24:10 10° NNW 18:28:08 20° NNE 18:29:16 19° NNE visible
27 Dec ? 20:07:47 10° NNW 20:10:01 23° NNW 20:10:01 23° NNW visible
